Regional Weather Roundup
Issued by NWS Mt. Holly, NJ

Home | Current Version | Previous Version | Text Only | Print | Product List | Glossary On
Versions: 1 2 3 4 5 6 7 8 9 10 11 12 13 14 15 16 17 18 19 20 21 22 23 24 25 26 27 28
000
ASUS41 KPHI 231612
RWRPHI

REGIONAL WEATHER ROUNDUP
NATIONAL WEATHER SERVICE MOUNT HOLLY NJ
1100 AM EST THU FEB 23 2017

NOTE:  "FAIR" INDICATES FEW OR NO CLOUDS BELOW 12,000 FEET WITH NO
SIGNIFICANT WEATHER AND/OR OBSTRUCTIONS TO VISIBILITY.

 * = STATION DOES NOT REPORT PRECIPITATION (E.G. RAIN, SNOW, ETC.)
        OR FOG.

NJZ015>026-231700-
SOUTHERN NEW JERSEY

CITY           SKY/WX    TMP DP  RH WIND       PRES   REMARKS
POMONA         SUNNY     66  52  60 SW8       29.91F
WILDWOOD*      SUNNY     65  55  70 SW14      29.92F
MILLVILLE      SUNNY     64  55  72 SW6       29.91F
WRIGHTSTOWN    CLOUDY    55  55  98 W10       29.88F
MOUNT HOLLY    CLOUDY    56  53  90 SW7       29.91S
TRENTON        CLOUDY    54  53  97 SW6       29.90S FOG

$$
NJZ001>014-231700-
NORTHERN NEW JERSEY

CITY           SKY/WX    TMP DP  RH WIND       PRES   REMARKS
SUSSEX         SUNNY     58  48  69 SW12      29.85F
ANDOVER*         N/A     58  47  66 SW9       29.87S
MORRISTOWN     CLOUDY    52  48  87 S8        29.89F FOG
NEWARK         CLOUDY    51  48  89 SW8       29.89F FOG
TETERBORO      CLOUDY    53  48  83 S8        29.88F
CALDWELL       CLOUDY    53  47  79 SW8       29.88F
SOMERVILLE     CLOUDY    49  47  93 CALM      29.89S FOG
ALLAIRE*       CLOUDY    56  53  90 SW9       29.91F
TOMS RIVER*    MOSUNNY   61  53  75 W13       29.91S

$$
PAZ043-044-047-054-055-060>062-066>071-231700-
EASTERN PENNSYLVANIA

CITY           SKY/WX    TMP DP  RH WIND       PRES   REMARKS
PHILADELPHIA   CLOUDY    54  53  97 SW9       29.91F FOG
NORTH PHILA    CLOUDY    56  53  90 SW8       29.91F FOG
BLUE BELL*     CLOUDY    52  52 100 SW3       29.89F
DOYLESTOWN     CLOUDY    53  52  96 SW6       29.88F
QUAKERTOWN*    CLOUDY    52  52 100 SW7       29.90F
PERKASIE*      CLOUDY    50  50 100 SW6       29.90F FOG
POTTSTOWN      CLOUDY    52  51  97 VRB3      29.90F FOG
LANCASTER      CLOUDY    53  52  96 CALM      29.89F FOG
COATESVILLE    MOSUNNY   54  54 100 VRB6      29.90F
READING        CLOUDY    54  51  90 VRB3      29.89S
ALLENTOWN      CLOUDY    50  45  83 W6        29.90S HAZE
MOUNT POCONO   SUNNY     58  49  72 SW8       29.85S
HAZLETON       MOSUNNY   66  50  55 SW9G18    29.88F
LEHIGHTON      FAIR      55  45  67 SW3       29.89S
WILKES BARRE   SUNNY     61  47  59 SW10      29.84F

$$
DEZALL-MDZ008-012-015-019-020-231700-
DELAWARE AND EASTERN MARYLAND

CITY           SKY/WX    TMP DP  RH WIND       PRES   REMARKS
WILMINGTON     SUNNY     59  53  80 SE7       29.91F
DOVER          SUNNY     66  65  97 SW12      29.89F
GEORGETOWN     SUNNY     68  54  60 SW13G21   29.92F
EASTON         MOSUNNY   66  54  63 SW10      29.95F
ABERDEEN       SUNNY     62  54  75 SW5       29.91F
PATUXENT       PTSUNNY   66  56  70 SW9       29.91F
OCEAN CITY     SUNNY     64  53  67 S9        29.94F
WALLOPS ISLAND PTSUNNY   68  54  60 SW14      29.95F
CAMBRIDGE      PTSUNNY   64  54  68 SW8G15    29.92S
SALISBURY      SUNNY     69  55  60 SW13      29.93F

$$
PAZ001-021-NYZ056-072-MDZ011-DCZ001-231700-
OTHER NEARBY LOCATIONS

CITY           SKY/WX    TMP DP  RH WIND       PRES   REMARKS
HARRISBURG     PTSUNNY   54  50  86 SE8       29.88F FOG
STATE COLLEGE  CLOUDY    55  50  82 W5        29.84S
WILLIAMSPORT   PTSUNNY   53  41  63 SE3       29.83F
BINGHAMTON     SUNNY     57  46  66 SW9       29.78F
NEW YORK CITY  CLOUDY    54  49  83 CALM      29.91F
BALTIMORE      MOSUNNY   68  55  63 CALM      29.89S
WASHINGTON DC  MOSUNNY   64  55  72 S12       29.91S

$$




USA.gov is the U.S. government's official web portal to all federal, state and local government web resources and services.